Middleton, WI

8:26 PM CST on February 24, 2018 (GMT -0600)
Middleton

Weather History for KC29 - April, 2013

Change the Weather History Date:

Sunday, April 14, 2013

  Actual Average (KMSN) Record (KMSN)
Temperature  
Mean Temperature 42 °F -  
Max Temperature 52 °F 56 °F 84 °F (2003)
Min Temperature 32 °F 36 °F 22 °F (1950)
Degree Days  
Heating Degree Days 24    
Moisture  
Dew Point 35 °F    
Average Humidity 81    
Maximum Humidity 96    
Minimum Humidity 63    
Precipitation  
Precipitation 0.07 in - - ()
Sea Level Pressure  
Sea Level Pressure 29.81 in    
Wind  
Wind Speed 7 mph (ESE)    
Max Wind Speed 21 mph    
Max Gust Speed 26 mph    
Visibility 9 miles    
Events      
Averages and records for this station are not official NWS values.
T = Trace of Precipitation, MM = Missing Value Source: NWS Daily Summary

Daily Weather History Graph

Daily Weather History Graph

Search for Another Location

Airport or City:

Trip Planner

Search our weather history database for the weather conditions in past years. The results will help you decide how hot, cold, wet, or windy it might be!

Date:

Astronomy

Apr. 14, 2013 Rise Set
Actual Time 6:17 AM CDT 7:39 PM CDT
Civil Twilight 5:47 AM CDT 8:09 PM CDT
Nautical Twilight 5:12 AM CDT 8:45 PM CDT
Astronomical Twilight 4:34 AM CDT 9:23 PM CDT
Moon 8:49 AM CDT (4/14) 11:57 PM CDT (4/14)
Length of Visible Light 14h 21m
Length of Day
13h 22m
Waxing Crescent, 17% of the Moon is Illuminated
Apr 14
Waxing Crescent
Apr 18
First Quarter
Apr 25
Full
May 2
Last Quarter
May 9
New

Hourly Weather History & Observations

Time (CDT) Temp. Windchill Dew Point Humidity Pressure Visibility Wind Dir Wind Speed Gust Speed Precip Events Conditions
12:15 AM 32.9 °F - 30.0 °F 89% 29.99 in 10.0 mi Calm Calm - N/A   Overcast
12:35 AM 32.9 °F - 31.1 °F 93% 29.99 in 10.0 mi Calm Calm - N/A   Overcast
12:55 AM 33.1 °F - 31.3 °F 93% 29.99 in 10.0 mi Calm Calm - N/A   Mostly Cloudy
1:15 AM 32.9 °F - 30.7 °F 92% 29.98 in 10.0 mi Calm Calm - N/A   Overcast
1:35 AM 33.3 °F - 29.3 °F 85% 29.98 in 10.0 mi Calm Calm - N/A   Overcast
1:55 AM 33.1 °F - 31.6 °F 94% 29.97 in 10.0 mi Calm Calm - N/A   Overcast
2:15 AM 33.4 °F - 31.8 °F 94% 29.97 in 10.0 mi Calm Calm - N/A   Overcast
2:35 AM 33.8 °F - 31.1 °F 90% 29.97 in 10.0 mi Calm Calm - N/A   Overcast
2:55 AM 34.3 °F 30.2 °F 27.9 °F 77% 29.96 in 10.0 mi ESE 4.6 mph - N/A   Overcast
3:15 AM 34.3 °F 31.4 °F 28.0 °F 78% 29.97 in 10.0 mi ESE 3.5 mph - N/A   Overcast
3:35 AM 34.3 °F 31.4 °F 28.4 °F 79% 29.97 in 10.0 mi ESE 3.5 mph - N/A   Overcast
3:55 AM 34.9 °F 30.8 °F 27.1 °F 73% 29.97 in 10.0 mi ESE 4.6 mph - N/A   Overcast
4:15 AM 35.2 °F 31.2 °F 26.4 °F 70% 29.98 in 10.0 mi SE 4.6 mph - N/A   Overcast
4:35 AM 34.7 °F 26.9 °F 27.1 °F 74% 29.98 in 5.0 mi SSE 10.4 mph - N/A   Overcast
4:55 AM 32.9 °F 27.5 °F 29.3 °F 87% 29.99 in 2.0 mi ESE 5.8 mph - N/A   Overcast
5:15 AM 32.9 °F 28.5 °F 31.5 °F 94% 29.98 in 2.5 mi East 4.6 mph - N/A   Overcast
5:35 AM 32.5 °F 27.1 °F 31.1 °F 94% 29.97 in 3.0 mi East 5.8 mph - N/A   Overcast
5:55 AM 32.9 °F 26.7 °F 31.8 °F 96% 29.97 in 7.0 mi ESE 6.9 mph - 0.01 in   Overcast
6:15 AM 32.9 °F 25.3 °F 31.8 °F 96% 29.96 in 10.0 mi ESE 9.2 mph - N/A   Overcast
6:35 AM 32.9 °F 25.3 °F 31.6 °F 95% 29.96 in 7.0 mi East 9.2 mph - N/A   Overcast
6:55 AM 32.9 °F 25.3 °F 31.8 °F 96% 29.96 in 5.0 mi East 9.2 mph - 0.01 in   Overcast
7:15 AM 32.9 °F 25.3 °F 31.8 °F 96% 29.94 in 5.0 mi East 9.2 mph - 0.01 in   Overcast
7:35 AM 33.1 °F 24.9 °F 32.0 °F 96% 29.93 in 5.0 mi East 10.4 mph - 0.03 in   Overcast
7:55 AM 33.1 °F 26.1 °F 32.0 °F 96% 29.92 in 5.0 mi East 8.1 mph - 0.04 in   Overcast
8:15 AM 33.3 °F 27.1 °F 32.0 °F 95% 29.92 in 5.0 mi East 6.9 mph - 0.01 in   Overcast
8:35 AM 33.3 °F 25.7 °F 32.0 °F 95% 29.90 in 10.0 mi East 9.2 mph - 0.01 in   Overcast
8:55 AM 33.4 °F 25.9 °F 32.0 °F 94% 29.90 in 10.0 mi East 9.2 mph - 0.01 in   Overcast
9:15 AM 33.8 °F 26.4 °F 32.2 °F 94% 29.90 in 10.0 mi East 9.2 mph - N/A   Overcast
9:35 AM 34.2 °F 26.2 °F 32.4 °F 93% 29.90 in 10.0 mi ESE 10.4 mph - N/A   Overcast
9:55 AM 34.3 °F 26.5 °F 32.5 °F 93% 29.92 in 10.0 mi ESE 10.4 mph 18.4 mph N/A   Overcast
10:15 AM 34.7 °F 26.9 °F 32.9 °F 93% 29.92 in 10.0 mi ESE 10.4 mph - N/A   Overcast
10:35 AM 35.6 °F 26.6 °F 33.8 °F 93% 29.90 in 10.0 mi ESE 13.8 mph 18.4 mph N/A   Overcast
10:55 AM 36.5 °F 27.8 °F 34.3 °F 92% 29.89 in 10.0 mi ESE 13.8 mph 21.9 mph N/A   Overcast
11:15 AM 37.2 °F 28.7 °F 34.7 °F 91% 29.88 in 10.0 mi East 13.8 mph 19.6 mph N/A   Overcast
11:35 AM 37.9 °F 28.9 °F 35.1 °F 89% 29.85 in 10.0 mi East 16.1 mph 21.9 mph N/A   Overcast
11:55 AM 39.2 °F 30.2 °F 36.1 °F 89% 29.84 in 10.0 mi East 17.3 mph - N/A   Overcast
12:15 PM 40.1 °F 32.0 °F 35.8 °F 85% 29.83 in 10.0 mi East 15.0 mph - N/A   Overcast
12:35 PM 42.3 °F 34.4 °F 36.7 °F 81% 29.82 in 10.0 mi ESE 16.1 mph 23.0 mph N/A   Overcast
12:55 PM 43.0 °F 34.2 °F 36.1 °F 77% 29.82 in 10.0 mi ESE 20.7 mph 25.3 mph N/A   Overcast
1:15 PM 44.1 °F 36.8 °F 36.0 °F 73% 29.81 in 10.0 mi ESE 16.1 mph 21.9 mph N/A   Overcast
1:35 PM 44.6 °F 36.6 °F 36.3 °F 73% 29.80 in 10.0 mi ESE 19.6 mph 25.3 mph N/A   Overcast
1:55 PM 45.5 °F 38.9 °F 37.0 °F 72% 29.80 in 10.0 mi East 15.0 mph 21.9 mph N/A   Mostly Cloudy
2:15 PM 46.8 °F - 36.9 °F 68% 29.77 in 10.0 mi East 18.4 mph 23.0 mph N/A   Mostly Cloudy
2:35 PM 46.8 °F - 37.4 °F 70% 29.76 in 10.0 mi East 18.4 mph 23.0 mph N/A   Mostly Cloudy
2:55 PM 47.7 °F - 37.6 °F 68% 29.74 in 10.0 mi ESE 18.4 mph 26.5 mph N/A   Scattered Clouds
3:15 PM 47.8 °F - 37.6 °F 68% 29.72 in 10.0 mi ESE 17.3 mph 24.2 mph N/A   Clear
3:35 PM 49.3 °F - 37.8 °F 65% 29.71 in 10.0 mi ESE 18.4 mph 26.5 mph N/A   Clear
3:55 PM 50.9 °F - 38.7 °F 63% 29.70 in 10.0 mi ESE 18.4 mph 26.5 mph N/A   Clear
4:15 PM 50.2 °F - 38.5 °F 64% 29.70 in 10.0 mi ESE 19.6 mph 25.3 mph N/A   Scattered Clouds
4:35 PM 49.1 °F - 38.1 °F 66% 29.69 in 10.0 mi East 17.3 mph 25.3 mph N/A   Overcast
4:55 PM 49.6 °F - 38.7 °F 66% 29.67 in 10.0 mi East 17.3 mph 26.5 mph N/A   Mostly Cloudy
5:15 PM 49.1 °F - 38.3 °F 66% 29.67 in 10.0 mi East 16.1 mph 25.3 mph N/A   Scattered Clouds
5:35 PM 48.6 °F - 37.8 °F 66% 29.67 in 10.0 mi East 16.1 mph 23.0 mph N/A   Clear
5:55 PM 47.5 °F - 37.4 °F 68% 29.66 in 10.0 mi East 16.1 mph 24.2 mph N/A   Clear
6:15 PM 46.9 °F - 37.2 °F 69% 29.65 in 10.0 mi East 13.8 mph 26.5 mph N/A   Clear
6:55 PM 45.5 °F 39.6 °F 36.7 °F 71% 29.65 in 10.0 mi East 12.7 mph - N/A   Clear
7:15 PM 45.3 °F 38.7 °F 36.9 °F 72% 29.65 in 10.0 mi East 15.0 mph 19.6 mph N/A   Clear
7:35 PM 45.0 °F 40.1 °F 36.9 °F 73% 29.65 in 10.0 mi East 9.2 mph 17.3 mph N/A   Scattered Clouds
7:55 PM 45.0 °F 39.3 °F 37.0 °F 74% 29.64 in 10.0 mi East 11.5 mph - N/A   Mostly Cloudy
8:15 PM 45.0 °F 40.6 °F 37.4 °F 75% 29.63 in 10.0 mi East 8.1 mph 19.6 mph N/A   Overcast
8:35 PM 45.0 °F 40.6 °F 37.8 °F 76% 29.63 in 10.0 mi East 8.1 mph - N/A   Overcast
8:55 PM 45.1 °F 39.5 °F 37.9 °F 76% 29.62 in 10.0 mi East 11.5 mph - N/A   Overcast
9:15 PM 45.5 °F 39.9 °F 38.5 °F 76% 29.62 in 10.0 mi East 11.5 mph - N/A   Overcast
9:35 PM 45.9 °F 41.7 °F 39.2 °F 78% 29.61 in 10.0 mi East 8.1 mph - N/A   Overcast
9:55 PM 45.9 °F 42.3 °F 39.4 °F 78% 29.59 in 10.0 mi ESE 6.9 mph - N/A   Mostly Cloudy
10:15 PM 47.3 °F - 40.1 °F 76% 29.58 in 10.0 mi ESE 8.1 mph - N/A   Mostly Cloudy
10:35 PM 48.7 °F - 41.2 °F 75% 29.57 in 10.0 mi SE 6.9 mph - N/A   Overcast
10:55 PM 50.7 °F - 42.1 °F 72% 29.57 in 10.0 mi SE 8.1 mph - N/A   Overcast
11:15 PM 51.4 °F - 42.4 °F 71% 29.56 in 10.0 mi SE 5.8 mph - N/A   Overcast
11:35 PM 51.8 °F - 43.2 °F 72% 29.58 in 10.0 mi WNW 16.1 mph 19.6 mph N/A   Overcast
11:55 PM 51.4 °F - 43.2 °F 73% 29.58 in 10.0 mi WSW 6.9 mph - N/A   Overcast